• In Moldova, Republic
  • List of Countries
  • For 7 days
  • Water Temperature
  • Satellite Maps
  • Weather Map
  • Weather Widgets
  • user-avatar
    Login

    Hourly Weather Kaprun

    Today, 30 April, Sunday

    Time Temperature Precipitation Wind Pressure Humidity
    00:00 -8°C° 0 mm 1 mps 591 mmHg 95%
    01:00 -8°C° 0 mm 1 mps 592 mmHg 95%
    02:00 -8°C° 0 mm 1 mps 592 mmHg 95%
    03:00 -8°C° 0 mm 1 mps 592 mmHg 95%
    04:00 -8°C° 0 mm 1 mps 592 mmHg 95%
    05:00 -6°C° 0 mm 1 mps 592 mmHg 92%
    06:00 -3°C° 0 mm 1 mps 593 mmHg 89%
    07:00 -2°C° 0 mm 1 mps 594 mmHg 86%
    08:00 0°C° 0 mm 1 mps 594 mmHg 84%
    09:00 -1°C° 0 mm 2 mps 595 mmHg 81%
    10:00 +2°C° 0 mm 2 mps 595 mmHg 79%
    11:00 +3°C° 0 mm 2 mps 595 mmHg 78%
    12:00 +3°C° 0 mm 2 mps 594 mmHg 77%
    13:00 +4°C° 0 mm 2 mps 594 mmHg 76%
    14:00 +4°C° 0 mm 2 mps 594 mmHg 77%
    15:00 +4°C° 0 mm 2 mps 594 mmHg 78%
    16:00 +4°C° 0 mm 2 mps 593 mmHg 79%
    17:00 +2°C° 0 mm 2 mps 593 mmHg 84%
    18:00 +1°C° 0 mm 2 mps 592 mmHg 89%
    19:00 -2°C° 0 mm 2 mps 591 mmHg 94%
    20:00 -4°C° 0 mm 3 mps 591 mmHg 94%
    21:00 -4°C° 0 mm 3 mps 591 mmHg 94%
    22:00 -5°C° 0 mm 3 mps 591 mmHg 94%
    23:00 -5°C° 0 mm 3 mps 591 mmHg 94%

    Tomorrow, 1 May, Monday

    Time Temperature Precipitation Wind Pressure Humidity
    00:00 -5°C° 0 mm 3 mps 591 mmHg 94%
    01:00 -6°C° 0 mm 3 mps 591 mmHg 94%
    02:00 -6°C° 0 mm 3 mps 590 mmHg 93%
    03:00 -6°C° 0 mm 3 mps 590 mmHg 93%
    04:00 -7°C° 0 mm 3 mps 589 mmHg 93%
    05:00 -5°C° 0 mm 2 mps 590 mmHg 90%
    06:00 -4°C° 0 mm 2 mps 591 mmHg 87%
    07:00 -2°C° 0 mm 2 mps 591 mmHg 84%
    08:00 -1°C° 0 mm 2 mps 592 mmHg 81%
    09:00 +1°C° 0 mm 2 mps 593 mmHg 79%
    10:00 +3°C° 0 mm 2 mps 593 mmHg 76%
    11:00 +2°C° 0.1 mm 3 mps 593 mmHg 79%
    12:00 +1°C° 0.1 mm 3 mps 593 mmHg 82%
    13:00 +1°C° 0.1 mm 3 mps 593 mmHg 85%
    14:00 0°C° 1.4 mm 3 mps 593 mmHg 89%
    15:00 0°C° 1.4 mm 3 mps 593 mmHg 92%
    16:00 -1°C° 1.4 mm 2 mps 593 mmHg 95%
    17:00 -2°C° 1.4 mm 2 mps 593 mmHg 96%
    18:00 -3°C° 1.4 mm 2 mps 593 mmHg 97%
    19:00 -1°C° 1.4 mm 1 mps 593 mmHg 98%
    20:00 -2°C° 1.2 mm 1 mps 593 mmHg 98%
    21:00 -2°C° 1.2 mm 1 mps 593 mmHg 98%
    22:00 -3°C° 1.2 mm 1 mps 593 mmHg 98%
    23:00 -3°C° 0.7 mm 1 mps 593 mmHg 98%

    Day after tomorrow, 2 May, Tuesday

    Time Temperature Precipitation Wind Pressure Humidity
    00:00 -3°C° 0.7 mm 1 mps 593 mmHg 98%
    01:00 -3°C° 0.7 mm 1 mps 594 mmHg 98%
    02:00 -4°C° 0.9 mm 1 mps 594 mmHg 98%
    03:00 -4°C° 0.9 mm 1 mps 594 mmHg 98%
    04:00 -4°C° 0.9 mm 1 mps 594 mmHg 98%
    05:00 -3°C° 0.5 mm 1 mps 594 mmHg 97%
    06:00 -3°C° 0.5 mm 1 mps 594 mmHg 97%
    07:00 -3°C° 0.5 mm 1 mps 595 mmHg 97%
    08:00 -1°C° 0 mm 1 mps 595 mmHg 96%
    09:00 0°C° 0 mm 1 mps 595 mmHg 95%
    10:00 +1°C° 0 mm 1 mps 596 mmHg 95%
    11:00 +2°C° 0 mm 1 mps 596 mmHg 94%
    12:00 +1°C° 0 mm 2 mps 596 mmHg 93%
    13:00 +2°C° 0 mm 2 mps 596 mmHg 92%
    14:00 +2°C° 0.1 mm 2 mps 596 mmHg 91%
    15:00 +2°C° 0.1 mm 2 mps 596 mmHg 90%
    16:00 +2°C° 0.1 mm 2 mps 596 mmHg 89%
    17:00 +1°C° 0.1 mm 2 mps 595 mmHg 91%
    18:00 0°C° 0.1 mm 1 mps 594 mmHg 94%
    19:00 -1°C° 0.1 mm 1 mps 594 mmHg 96%
    20:00 -2°C° 0 mm 1 mps 594 mmHg 96%
    21:00 -4°C° 0 mm 2 mps 594 mmHg 96%
    22:00 -5°C° 0 mm 2 mps 594 mmHg 96%
    23:00 -5°C° 0 mm 2 mps 594 mmHg 96%

    3 May, Wednesday

    Time Temperature Precipitation Wind Pressure Humidity
    00:00 -5°C° 0 mm 2 mps 594 mmHg 95%
    01:00 -6°C° 0 mm 2 mps 593 mmHg 95%
    02:00 -6°C° 0 mm 2 mps 593 mmHg 94%
    03:00 -6°C° 0 mm 2 mps 593 mmHg 94%
    04:00 -6°C° 0 mm 2 mps 593 mmHg 94%
    05:00 -5°C° 0 mm 2 mps 593 mmHg 92%
    06:00 -3°C° 0 mm 2 mps 594 mmHg 89%
    07:00 0°C° 0 mm 1 mps 595 mmHg 87%
    08:00 -1°C° 0.1 mm 2 mps 595 mmHg 85%
    09:00 +1°C° 0.1 mm 2 mps 596 mmHg 84%
    10:00 +2°C° 0.1 mm 2 mps 596 mmHg 82%
    11:00 +3°C° 0.2 mm 2 mps 596 mmHg 83%
    12:00 +3°C° 0.2 mm 2 mps 596 mmHg 84%
    13:00 +3°C° 0.2 mm 2 mps 596 mmHg 85%
    14:00 +3°C° 0.3 mm 2 mps 596 mmHg 86%
    15:00 +3°C° 0.3 mm 2 mps 595 mmHg 86%
    16:00 +3°C° 0.3 mm 2 mps 595 mmHg 87%
    17:00 +2°C° 0.3 mm 2 mps 594 mmHg 90%
    18:00 +2°C° 0.3 mm 1 mps 594 mmHg 94%
    19:00 +1°C° 0.3 mm 1 mps 594 mmHg 97%
    20:00 -1°C° 0.5 mm 1 mps 593 mmHg 97%
    21:00 -2°C° 0.5 mm 1 mps 593 mmHg 98%
    22:00 -4°C° 0.5 mm 0 mps 593 mmHg 99%
    23:00 -3°C° 0.5 mm 0 mps 593 mmHg 98%

    4 May, Thursday

    Time Temperature Precipitation Wind Pressure Humidity
    00:00 -3°C° 0.5 mm 0 mps 593 mmHg 98%
    01:00 -3°C° 0.5 mm 0 mps 593 mmHg 98%
    02:00 -3°C° 0.7 mm 0 mps 593 mmHg 98%
    03:00 -3°C° 0.7 mm 0 mps 592 mmHg 98%
    04:00 -3°C° 0.7 mm 0 mps 592 mmHg 98%
    05:00 -2°C° 0.9 mm 0 mps 593 mmHg 97%
    06:00 -1°C° 0.9 mm 0 mps 593 mmHg 95%
    07:00 0°C° 0.9 mm 0 mps 593 mmHg 94%
    08:00 +1°C° 0.6 mm 1 mps 593 mmHg 92%
    09:00 +2°C° 0.6 mm 1 mps 594 mmHg 91%
    10:00 +3°C° 0.6 mm 1 mps 594 mmHg 89%
    11:00 +3°C° 0.4 mm 1 mps 594 mmHg 88%
    12:00 +4°C° 0.4 mm 1 mps 593 mmHg 87%
    13:00 +3°C° 0.4 mm 2 mps 593 mmHg 86%
    14:00 +3°C° 0.6 mm 2 mps 593 mmHg 87%
    15:00 +3°C° 0.6 mm 2 mps 593 mmHg 87%
    16:00 +3°C° 0.6 mm 2 mps 593 mmHg 88%
    17:00 +3°C° 0.7 mm 1 mps 592 mmHg 91%
    18:00 +2°C° 0.7 mm 1 mps 592 mmHg 94%
    19:00 +1°C° 0.7 mm 1 mps 592 mmHg 97%
    20:00 +1°C° 0.9 mm 1 mps 592 mmHg 98%
    21:00 0°C° 0.9 mm 1 mps 592 mmHg 98%
    22:00 0°C° 0.9 mm 1 mps 592 mmHg 99%
    23:00 0°C° 0.7 mm 1 mps 592 mmHg 98%

    5 May, Friday

    Time Temperature Precipitation Wind Pressure Humidity
    00:00 0°C° 0.7 mm 1 mps 593 mmHg 98%
    01:00 0°C° 0.7 mm 1 mps 593 mmHg 98%
    02:00 0°C° 0.3 mm 1 mps 593 mmHg 98%
    03:00 0°C° 0.3 mm 1 mps 593 mmHg 98%
    04:00 -2°C° 0.3 mm 2 mps 593 mmHg 98%
    05:00 0°C° 0.1 mm 1 mps 593 mmHg 96%
    06:00 +1°C° 0.1 mm 1 mps 594 mmHg 95%
    07:00 +1°C° 0.1 mm 1 mps 594 mmHg 94%
    08:00 +2°C° 0.1 mm 1 mps 595 mmHg 91%
    09:00 +3°C° 0.1 mm 1 mps 595 mmHg 88%
    10:00 +4°C° 0.1 mm 1 mps 596 mmHg 85%
    11:00 +5°C° 0.1 mm 1 mps 596 mmHg 83%
    12:00 +5°C° 0.1 mm 1 mps 596 mmHg 82%
    13:00 +6°C° 0.1 mm 1 mps 596 mmHg 80%
    14:00 +6°C° 0.2 mm 1 mps 596 mmHg 81%
    15:00 +6°C° 0.2 mm 1 mps 596 mmHg 82%
    16:00 +6°C° 0.2 mm 1 mps 596 mmHg 84%
    17:00 +5°C° 0.1 mm 1 mps 596 mmHg 88%
    18:00 +3°C° 0.1 mm 1 mps 595 mmHg 92%
    19:00 +2°C° 0.1 mm 1 mps 595 mmHg 97%
    20:00 +1°C° 0 mm 1 mps 595 mmHg 97%
    21:00 -1°C° 0 mm 1 mps 594 mmHg 97%
    22:00 -2°C° 0 mm 1 mps 594 mmHg 98%
    23:00 -3°C° 0 mm 1 mps 594 mmHg 97%
    Show more